Location: Newark
(35.6799°N, 139.7636°E)
Time: 07:15:38
(UTC+00:00)

Explorer 7 - Pass Details

Date: 09 December 2019
Orbit: 485 x 679 km, 50.3° (Epoch: 20 January)

Event Time Altitude Azimuth Distance (km) Brightness Sun altitude
Rises 11:48:17 0° 314° (NW) 3,022 - -52.1°
Reaches altitude 10° 11:51:06 10° 329° (NNW) 2,089 - -52.7°
Maximum altitude 11:54:58 23° 22° (NNE) 1,371 - -53.5°
Drops below altitude 10° 11:58:42 10° 76° (ENE) 2,012 - -54.2°
Sets 12:01:21 0° 90° (E) 2,882 - -54.7°
